Wind_Speed
2 2 3 3 4 5 5 6 7 8 9 10 11 12 13 15 16 17 19 20 20 21 22 23 23 24 24 25 25 25 25 25 25 25 24 22 21 19 17 14 12 10 9 7
1 1 2 3 4 4 5 6 6 7 8 9 10 12 13 14 15 16 18 19 20 20 21 22 23 23 24 25 25 25 25 26 26 26 25 23 22 20 18 16 14 12 11 9
0 0 1 2 3 4 5 6 7 7 9 10 10 12 13 14 15 16 17 18 19 19 20 21 22 23 24 24 25 25 25 25 26 26 26 24 23 21 20 18 17 14 12 11
1 1 1 2 3 4 5 6 7 8 9 10 11 12 13 14 15 15 16 17 18 18 19 20 21 22 23 24 24 25 24 25 25 25 25 25 24 22 21 19 18 17 15 13
3 3 3 3 4 5 6 7 8 9 9 10 11 12 13 14 14 15 16 16 17 17 18 19 20 21 22 23 24 24 24 24 24 25 25 24 24 23 22 21 19 18 17 15
6 5 5 6 6 6 7 8 9 10 10 11 11 12 13 14 14 15 15 16 16 17 17 18 19 20 21 22 22 23 23 24 24 24 24 24 23 23 22 21 20 19 18 17
9 9 9 8 9 9 9 10 10 11 11 12 12 12 13 14 14 15 15 16 16 17 17 18 18 18 19 20 21 22 22 23 23 23 23 23 23 22 22 21 20 20 19 18
11 11 11 11 11 11 12 12 12 13 13 13 13 13 14 14 14 15 15 16 16 16 17 17 18 18 18 19 20 20 21 21 22 22 22 22 22 22 22 21 20 19 19 19
13 13 14 14 14 14 14 15 15 15 15 15 15 15 15 15 15 16 16 16 16 17 17 17 18 18 18 19 19 19 20 20 20 20 21 21 21 21 21 21 20 19 18 18
16 16 16 16 16 17 17 17 18 18 18 18 18 18 18 18 18 18 18 18 18 18 18 18 18 18 18 18 19 19 19 19 19 19 19 19 19 20 20 20 19 18 17 17
19 19 19 19 19 19 20 20 20 20 20 20 21 21 21 21 20 20 20 20 20 19 19 19 19 19 19 19 19 19 18 18 18 18 18 17 17 17 18 18 18 17 16 16
22 21 22 22 22 22 23 23 23 23 23 23 23 23 23 23 23 23 23 22 22 22 21 21 21 20 20 20 19 19 19 18 18 17 17 17 16 15 15 15 15 15 14 14
25 25 25 25 25 26 26 26 26 26 26 26 26 26 26 26 26 25 25 25 24 24 24 23 23 22 22 22 21 20 20 19 19 18 17 17 16 15 14 14 13 13 12 12
28 28 28 28 29 29 29 30 30 30 29 29 29 29 28 28 28 28 28 28 27 26 26 26 25 25 24 24 23 22 21 21 20 19 19 18 17 16 15 14 13 12 11 10
31 32 32 32 32 32 33 33 33 33 32 32 32 32 32 32 31 32 32 31 31 30 30 29 29 28 28 27 26 25 24 23 22 21 20 19 18 17 16 15 14 13 12 10
35 35 36 36 36 36 36 36 36 36 36 36 36 36 36 35 35 35 36 35 35 34 34 33 33 32 32 30 29 28 27 26 25 24 23 22 21 19 18 17 16 15 13 12
38 38 39 39 40 39 39 39 39 39 39 40 40 39 39 39 39 39 39 39 39 38 38 38 37 37 36 35 33 32 31 30 29 28 26 25 24 23 21 20 19 18 16 15
41 42 42 42 42 42 43 43 43 43 43 43 43 43 43 43 43 43 43 43 42 42 42 42 42 41 40 39 38 37 35 34 32 31 30 29 27 26 25 24 22 21 20 19
43 43 44 44 44 45 45 45 45 46 46 45 45 46 45 45 45 45 45 45 45 45 45 45 45 45 44 44 43 42 40 38 37 35 34 33 31 30 29 27 26 25 24 22
45 45 45 45 45 46 46 47 47 47 47 47 47 47 48 48 47 47 47 48 48 47 47 48 48 48 48 47 47 46 44 43 41 40 39 37 36 34 33 31 30 29 27 26
45 45 45 45 45 45 46 46 47 47 47 48 48 48 48 49 49 49 49 50 50 50 50 50 50 50 50 50 50 50 49 48 46 45 43 42 40 39 37 36 34 33 31 30
43 43 44 44 45 45 46 46 46 47 47 48 48 49 49 50 50 51 52 52 52 52 53 53 53 53 53 53 53 53 52 52 51 50 48 47 45 43 42 40 39 37 36 34
43 43 43 44 44 44 45 45 46 46 47 48 49 50 50 51 52 52 53 53 54 54 54 54 55 55 56 56 56 56 56 55 55 54 53 52 50 49 47 45 43 42 40 39
42 42 42 43 43 44 45 45 46 47 48 49 50 51 52 53 54 55 55 56 56 56 57 57 57 57 57 58 59 59 59 59 58 58 58 57 55 54 52 50 48 46 45 43
41 42 42 42 43 44 45 46 48 49 50 51 53 54 55 56 56 57 58 58 59 59 59 59 59 59 59 59 60 60 61 61 61 61 61 61 59 58 57 55 53 51 49 47
42 42 43 44 45 46 47 48 50 51 52 53 54 56 57 58 58 59 60 60 61 61 61 60 60 60 60 60 60 60 61 62 63 63 63 63 63 62 61 59 57 55 53 51
44 44 45 46 47 48 49 50 50 51 53 54 55 56 58 59 60 60 61 61 61 61 61 61 60 60 60 59 59 59 60 60 61 62 63 64 64 64 63 62 61 59 57 56
Wind_Direction
100 62 47 34 22 18 18 19 20 18 17 15 14 13 13 13 13 13 14 15 15 15 16 17 18 18 17 17 18 17 17 18 17 18 18 19 18 16 16 15 10 4 359 353
115 63 44 34 24 20 13 10 9 9 10 9 9 9 9 9 9 9 11 12 13 14 15 16 16 17 18 18 19 19 19 19 20 21 21 22 22 22 21 19 18 16 13 9
181 49 35 28 15 10 6 3 0 0 2 2 2 2 2 3 4 5 6 8 9 10 12 14 15 16 17 18 19 19 19 20 21 22 23 23 24 24 24 23 23 22 21 19
249 291 336 347 346 348 349 350 351 352 354 355 357 357 358 358 360 1 3 5 7 9 11 12 14 15 15 16 17 18 19 20 21 22 23 24 24 25 25 25 24 24 24 24
270 288 300 312 320 325 329 335 340 341 344 346 348 351 353 354 355 357 360 2 4 5 7 9 10 12 13 14 15 17 18 19 20 21 23 24 25 25 25 25 25 25 25 24
271 280 287 294 300 307 313 318 326 329 332 335 338 341 343 346 348 349 353 356 358 360 2 4 5 7 9 11 13 15 16 18 19 20 22 23 24 24 24 24 25 26 26 26
268 274 279 284 288 293 298 306 311 316 320 323 327 331 335 338 340 343 346 348 350 352 355 357 359 1 4 6 9 11 13 15 17 19 20 22 23 23 24 25 25 27 28 30
268 272 275 280 283 286 291 295 299 304 309 313 317 320 323 327 330 334 337 341 343 344 347 350 352 355 358 0 3 5 8 10 12 15 17 19 21 22 23 24 26 28 30 33
267 271 274 277 280 283 285 289 293 297 301 305 308 311 313 316 319 323 327 330 333 336 338 340 343 346 350 353 355 358 1 4 6 9 12 15 18 20 22 24 25 28 30 32
268 270 273 275 277 279 282 285 288 292 295 298 301 303 305 307 310 313 316 319 322 325 328 331 333 336 339 342 346 350 353 356 359 2 5 9 13 16 19 22 24 27 29 32
268 270 272 274 276 279 281 282 285 287 290 293 295 297 299 301 303 305 307 310 313 315 318 321 324 326 328 332 335 338 342 346 349 352 355 359 3 9 13 17 21 23 26 30
267 269 270 273 275 277 279 281 282 284 286 289 291 294 296 297 299 300 301 303 305 307 309 311 314 317 320 323 326 328 331 334 337 340 344 347 350 355 1 6 12 17 19 22
267 268 270 272 275 277 278 281 283 284 286 288 290 291 292 294 295 296 297 299 300 302 304 305 307 308 310 313 317 319 321 323 326 329 331 334 337 340 344 349 354 1 7 11
268 269 271 272 274 276 278 280 282 284 285 287 289 290 290 291 292 293 294 295 296 297 298 300 301 302 303 304 306 309 311 313 315 318 320 321 323 325 328 332 336 339 344 351
268 269 271 272 274 276 277 279 281 283 284 286 287 287 288 289 289 290 290 291 293 293 294 295 296 296 297 298 299 300 301 303 305 307 308 310 311 312 313 315 318 322 324 326
268 269 271 273 274 275 277 279 280 282 284 285 286 287 287 288 288 288 289 289 290 290 290 291 291 291 292 293 294 295 295 295 296 297 299 300 300 301 302 302 303 303 306 308
269 270 272 273 275 276 278 279 280 282 283 284 285 286 286 287 287 288 288 288 288 288 288 288 288 288 289 289 289 289 289 290 290 290 291 291 292 292 292 292 292 292 292 292
268 271 272 274 276 277 278 279 280 282 282 283 284 285 285 286 286 286 286 286 286 286 285 285 285 286 286 286 285 285 284 284 284 284 284 285 285 285 285 284 284 284 284 283
268 270 272 273 274 276 278 280 281 282 283 284 285 285 286 285 285 285 285 285 284 284 283 283 283 283 282 282 282 282 281 280 280 279 279 279 279 279 279 279 278 278 277 276
268 270 271 272 273 275 277 278 280 281 283 284 284 285 285 285 285 285 285 284 284 283 283 282 282 281 280 280 279 279 278 277 276 276 275 275 274 274 274 273 273 273 273 272
268 269 270 271 273 275 276 278 279 281 282 283 283 284 284 285 285 285 284 284 284 284 283 282 281 280 278 277 276 276 275 274 273 272 272 271 271 270 270 269 268 268 268 268
266 268 270 272 274 275 277 278 279 280 281 282 283 284 284 285 285 285 285 285 284 283 282 281 280 279 278 276 275 274 272 271 270 269 268 268 267 267 266 266 265 265 264 264
267 269 270 272 274 276 277 279 280 281 282 283 284 284 285 286 286 286 286 286 286 285 283 281 280 278 276 275 274 272 271 269 267 266 265 264 264 264 263 263 263 262 262 261
268 269 271 273 275 277 278 280 281 282 283 284 285 286 287 288 288 288 288 287 286 285 284 283 281 279 277 274 272 271 269 267 265 264 263 262 261 261 260 260 260 260 259 259
268 270 272 274 276 278 280 282 283 285 286 287 288 289 289 289 289 289 289 288 288 286 285 283 281 279 277 275 272 270 268 266 264 262 261 260 259 258 258 257 257 257 257 257
269 271 274 276 278 280 282 284 286 287 289 290 291 291 292 292 292 292 292 291 290 289 287 285 283 281 278 275 273 270 268 265 263 261 260 259 258 257 256 256 256 255 255 255
271 273 276 278 280 282 284 286 288 290 291 292 293 293 294 294 294 294 294 293 292 290 289 287 285 282 279 276 273 270 268 266 263 261 259 258 257 256 255 255 254 254 254 253
Height
5877 5876 5876 5875 5874 5873 5872 5871 5870 5868 5866 5864 5861 5859 5856 5853 5850 5846 5842 5838 5834 5829 5825 5820 5815 5811 5805 5800 5795 5790 5785 5779 5774 5768 5763 5758 5753 5749 5745 5741 5739 5736 5734 5732
5877 5876 5876 5875 5875 5874 5873 5871 5870 5868 5867 5865 5862 5859 5857 5854 5851 5847 5843 5839 5835 5831 5827 5822 5818 5813 5808 5803 5797 5792 5787 5782 5776 5771 5765 5760 5756 5751 5747 5743 5740 5737 5734 5732
5877 5877 5876 5876 5875 5874 5873 5872 5870 5869 5868 5865 5863 5860 5857 5854 5851 5848 5844 5840 5836 5832 5828 5824 5820 5815 5810 5805 5800 5795 5790 5784 5779 5774 5768 5763 5759 5754 5750 5746 5742 5739 5736 5733
5877 5877 5877 5878 5875 5874 5873 5872 5870 5869 5867 5865 5863 5860 5857 5855 5852 5848 5845 5841 5837 5834 5830 5826 5821 5817 5812 5808 5803 5797 5792 5787 5782 5777 5772 5767 5762 5757 5753 5749 5745 5741 5738 5735
5876 5876 5876 5876 5875 5873 5872 5871 5870 5868 5866 5864 5862 5860 5857 5855 5852 5849 5845 5842 5838 5835 5831 5827 5823 5819 5814 5810 5805 5800 5795 5790 5785 5780 5775 5770 5765 5760 5756 5752 5747 5743 5740 5736
5875 5875 5875 5876 5874 5872 5872 5870 5869 5867 5865 5864 5862 5860 5858 5855 5852 5849 5845 5842 5839 5835 5832 5828 5824 5820 5816 5812 5807 5802 5797 5792 5788 5783 5778 5773 5768 5764 5759 5754 5750 5746 5742 5739
5873 5873 5873 5873 5872 5871 5871 5870 5867 5866 5864 5862 5860 5859 5857 5854 5851 5848 5845 5842 5839 5835 5832 5828 5825 5821 5817 5813 5809 5804 5800 5795 5790 5786 5781 5776 5772 5767 5762 5758 5753 5749 5745 5742
5870 5870 5872 5870 5869 5869 5868 5866 5865 5863 5862 5860 5858 5856 5854 5852 5849 5847 5844 5841 5838 5835 5832 5828 5825 5821 5818 5814 5810 5806 5802 5797 5793 5788 5784 5779 5775 5770 5765 5761 5757 5753 5749 5746
5868 5869 5867 5866 5866 5865 5864 5863 5861 5860 5859 5857 5855 5853 5852 5850 5847 5845 5842 5840 5837 5834 5831 5828 5825 5821 5818 5814 5811 5807 5803 5799 5795 5791 5786 5782 5778 5774 5769 5765 5761 5757 5753 5750
5863 5863 5863 5862 5862 5861 5860 5859 5858 5856 5855 5853 5852 5850 5848 5846 5844 5842 5840 5837 5835 5832 5829 5826 5823 5820 5817 5814 5810 5807 5803 5800 5796 5792 5788 5785 5781 5777 5772 5768 5764 5761 5757 5754
5858 5858 5858 5857 5857 5856 5855 5854 5853 5852 5850 5849 5847 5846 5844 5842 5840 5838 5836 5834 5832 5829 5827 5824 5821 5818 5816 5813 5809 5806 5803 5800 5797 5793 5789 5786 5783 5779 5775 5772 5768 5764 5761 5758
5853 5853 5852 5852 5851 5850 5850 5849 5847 5846 5845 5843 5842 5841 5839 5837 5835 5833 5831 5829 5827 5825 5823 5821 5818 5816 5813 5810 5808 5805 5802 5799 5796 5793 5790 5787 5784 5780 5777 5774 5771 5768 5764 5761
5846 5846 5846 5845 5845 5844 5843 5842 5841 5840 5839 5838 5836 5835 5833 5832 5830 5828 5826 5824 5822 5821 5818 5816 5814 5812 5810 5807 5805 5802 5800 5797 5795 5792 5789 5786 5784 5781 5778 5775 5772 5770 5767 5764
5838 5838 5838 5838 5837 5836 5836 5835 5834 5833 5832 5831 5830 5828 5827 5825 5824 5822 5820 5818 5817 5815 5813 5811 5809 5807 5805 5803 5801 5799 5796 5794 5792 5789 5787 5785 5782 5780 5777 5775 5772 5770 5768 5765
5829 5829 5829 5829 5828 5828 5827 5826 5826 5825 5824 5823 5822 5820 5819 5818 5816 5814 5812 5811 5809 5808 5806 5804 5802 5800 5798 5797 5795 5793 5792 5790 5788 5786 5784 5782 5780 5778 5775 5773 5771 5769 5767 5765
5820 5820 5819 5819 5819 5818 5818 5817 5816 5816 5815 5813 5812 5811 5810 5808 5807 5805 5804 5802 5801 5800 5798 5796 5795 5793 5791 5790 5788 5787 5785 5784 5782 5781 5779 5777 5775 5774 5772 5770 5769 5767 5765 5763
5809 5809 5808 5808 5808 5808 5807 5807 5806 5805 5804 5803 5802 5801 5799 5798 5797 5795 5793 5792 5791 5790 5788 5786 5785 5784 5782 5781 5780 5779 5778 5777 5775 5774 5773 5771 5770 5768 5767 5766 5765 5763 5762 5760
5798 5797 5797 5797 5796 5796 5795 5795 5794 5793 5792 5791 5790 5789 5788 5786 5785 5784 5782 5780 5779 5778 5776 5775 5774 5773 5772 5771 5770 5769 5768 5768 5767 5766 5765 5764 5763 5762 5761 5760 5759 5758 5757 5756
5786 5786 5785 5785 5785 5784 5783 5782 5781 5780 5779 5778 5777 5776 5774 5773 5772 5771 5769 5768 5766 5765 5764 5762 5761 5760 5759 5758 5758 5758 5757 5757 5756 5756 5755 5755 5754 5753 5753 5752 5751 5751 5750 5749
5773 5773 5773 5772 5772 5771 5770 5769 5768 5767 5766 5765 5764 5762 5760 5759 5758 5756 5755 5753 5752 5751 5750 5749 5747 5746 5745 5745 5744 5744 5744 5744 5744 5744 5744 5743 5743 5743 5743 5743 5742 5742 5742 5741
5760 5760 5759 5759 5759 5758 5758 5757 5755 5754 5753 5751 5750 5748 5747 5745 5743 5742 5740 5739 5737 5735 5734 5733 5732 5731 5730 5729 5728 5728 5728 5729 5729 5730 5730 5730 5731 5731 5731 5731 5732 5732 5732 5732
5746 5746 5746 5746 5746 5745 5744 5743 5742 5741 5739 5737 5736 5734 5732 5730 5728 5726 5724 5723 5721 5720 5718 5716 5715 5713 5712 5711 5711 5711 5711 5711 5712 5713 5714 5715 5716 5717 5717 5718 5719 5720 5720 5721
5733 5733 5733 5733 5732 5731 5730 5729 5728 5726 5725 5723 5721 5719 5717 5715 5713 5711 5708 5706 5703 5702 5700 5698 5696 5695 5694 5693 5692 5692 5692 5692 5693 5694 5696 5697 5699 5700 5702 5703 5704 5706 5707 5708
5720 5720 5720 5720 5719 5718 5717 5715 5713 5711 5710 5708 5706 5704 5701 5699 5696 5693 5691 5688 5686 5683 5681 5679 5677 5675 5674 5672 5671 5671 5671 5671 5672 5673 5675 5677 5679 5682 5684 5686 5688 5690 5692 5693
5707 5707 5707 5706 5705 5704 5702 5701 5698 5696 5694 5691 5689 5686 5684 5681 5678 5675 5672 5669 5666 5663 5660 5658 5656 5654 5652 5650 5649 5648 5648 5649 5650 5651 5653 5655 5658 5661 5664 5667 5669 5672 5675 5677
5693 5693 5692 5691 5690 5689 5687 5685 5683 5680 5677 5674 5671 5668 5665 5661 5658 5655 5651 5648 5645 5641 5639 5636 5633 5631 5629 5627 5626 5625 5625 5625 5626 5627 5629 5632 5635 5638 5642 5646 5650 5653 5656 5659
5679 5678 5677 5676 5675 5673 5671 5669 5666 5663 5660 5657 5654 5650 5646 5642 5639 5635 5631 5627 5623 5619 5616 5613 5610 5607 5605 5603 5602 5601 5601 5601 5602 5603 5605 5608 5611 5615 5619 5623 5628 5632 5636 5639